EW6866 Weather Reports


time (UTC)temp
C
wind
direction
speed
KPH
gust
KPH
rain 1hr
cm
rain 24hr
cm
rain mn
cm
humidity
%
barometer
mb
20260504081524 9 214 0.0 1.6 0.00 0.00 0.00 92 1017.1
20260504050005 12 256 0.0 1.6 0.00 0.00 0.00 85 1017.4
20260504044505 12 275 0.0 1.6 0.00 0.00 0.00 84 1017.5
20260504043005 12 258 0.0 3.2 0.00 0.00 0.00 84 1017.4
20260504041506 12 262 0.0 3.2 0.00 0.00 0.00 84 1017.4
20260504040006 12 265 0.0 4.8 0.00 0.00 0.00 83 1017.4
20260504034526 12 212 0.0 3.2 0.00 0.00 0.00 84 1017.5
20260504033027 12 284 0.0 8.0 0.00 0.00 0.00 84 1017.4
20260504031526 11 294 0.0 3.2 0.00 0.00 0.00 85 1017.5
20260504030005 11 290 0.0 3.2 0.00 0.00 0.00 85 1017.6
20260504024505 11 304 0.0 1.6 0.00 0.00 0.00 84 1017.7
20260504023004 11 306 0.0 3.2 0.00 0.00 0.00 84 1017.6
20260504021505 10 278 0.0 1.6 0.00 0.00 0.00 87 1017.4
20260504020005 9 0 0.0 0.0 0.00 0.00 0.00 79 1017.3
20260504014507 10 0 0.0 0.0 0.00 0.03 0.00 78 1017.0
20260504013005 10 0 0.0 0.0 0.00 0.03 0.00 78 1016.7
20260504011504 10 0 0.0 0.0 0.00 0.03 0.00 76 1016.5
20260504010026 11 0 0.0 0.0 0.00 0.03 0.00 75 1016.3
20260504004505 11 0 0.0 0.0 0.00 0.03 0.00 72 1016.0
20260504003005 11 0 0.0 0.0 0.00 0.03 0.00 70 1016.0
20260504001504 12 0 0.0 0.0 0.00 0.03 0.00 70 1015.8
20260504000005 12 0 0.0 0.0 0.00 0.03 0.00 66 1015.7
20260503234505 13 0 0.0 0.0 0.00 0.03 0.00 63 1015.6
20260503233026 14 0 0.0 0.0 0.00 0.03 0.00 61 1015.4
20260503231505 15 0 0.0 0.0 0.00 0.03 0.00 56 1015.3
20260503230004 15 0 0.0 0.0 0.00 0.03 0.00 53 1015.2
20260503224504 16 129 0.0 1.6 0.00 0.03 0.00 50 1015.2
20260503223004 16 157 0.0 9.7 0.00 0.03 0.00 47 1015.1
20260503221505 16 151 0.0 3.2 0.00 0.03 0.00 49 1015.2
20260503220026 16 116 0.0 4.8 0.00 0.03 0.00 48 1015.2
20260503214505 17 136 1.6 8.0 0.00 0.03 0.00 45 1015.1
20260503213005 17 100 1.6 6.4 0.00 0.03 0.00 47 1015.0
20260503211504 18 138 1.6 9.7 0.00 0.03 0.00 44 1014.9
20260503210005 18 107 0.0 3.2 0.00 0.03 0.00 43 1015.0
20260503204504 18 99 1.6 8.0 0.00 0.05 0.00 44 1014.9
20260503203004 18 133 1.6 8.0 0.00 0.05 0.00 44 1015.0
20260503201505 18 180 1.6 9.7 0.00 0.05 0.00 44 1015.1
20260503200005 19 130 0.0 6.4 0.00 0.08 0.00 46 1015.3
20260503194504 18 117 1.6 3.2 0.00 0.08 0.00 45 1015.5
20260503193004 18 154 1.6 8.0 0.00 0.10 0.00 45 1015.5
20260503191526 18 152 1.6 11.3 0.00 0.10 0.00 46 1015.9
20260503190025 18 149 1.6 9.7 0.00 0.10 0.00 44 1016.1
20260503184525 18 157 1.6 8.0 0.00 0.10 0.00 45 1016.1
20260503183025 18 177 1.6 12.9 0.00 0.10 0.00 45 1016.3
20260503181505 18 135 1.6 16.1 0.00 0.10 0.00 50 1016.4
20260503180005 17 134 3.2 12.9 0.00 0.10 0.00 47 1016.4
20260503174504 17 130 1.6 9.7 0.00 0.10 0.00 51 1016.4
20260503173004 16 133 1.6 8.0 0.00 0.13 0.00 49 1016.4
20260503171525 17 117 1.6 12.9 0.00 0.15 0.00 48 1016.6